Weather in Derry

United Kingdom     55°01′47″N   7°17′19″W
temp.,
°C
wind,
m/s
gust,
m/s
humid.,
%
clouds,
%
prec.,
mm/h
press.,
hPa
HPBL,
m
22 january, sat
sat2200:00+6sw31088100 0.0 1036454
03:00+6sw398799 0.0 1036346
06:00+7sw3986100 0.0 1035413
09:00+5sw399582 0.0 1036258
12:00+9sw410816 0.0 1035655
15:00+8sw498377 0.0 1034860
18:00+5s239689 0.0 103555
21:00+6s2792100 0.0 1034267
23 january, sun
sun2300:00+4s229595 0.0 103338
03:00+3s239386 0.0 103252
06:00+3s25935 0.0 1030127
09:00+1s23976 0.0 103074
12:00+5ssw3117846 0.0 1029721
15:00+6ssw41180100 0.0 1027823
18:00+6ssw41181100 0.0 1027965
21:00+7ssw31177100 0.0 1026924
24 january, mon
mon2400:00+7ssw31279100 0.0 1027699
03:00+7ssw3984100 0.0 1028501
06:00+6ssw2890100 0.0 1029296
09:00+6nne1596100 0.3 1032323
12:00+6ne1292100 0.4 1033113
15:00+6ene1189100 0.0 103445
18:00+6se1186100 0.0 103513
21:00+6e1185100 0.0 103714
25 january, tue
tue2500:00+6s1187100 0.0 103714
03:00+6ssw1189100 0.0 103726
06:00+6ssw2293100 0.0 103646
09:00+6ssw2395100 0.0 103683
12:00+8ssw2788100 0.0 1036321
15:00+9sw3885100 0.1 1035468
18:00+7ssw2892100 0.2 1035284
21:00+7ssw3893100 0.1 1035354
26 january, wed
wed2600:00+6ssw2795100 0.1 1035221
03:00+5ssw249598 0.0 103469
06:00+4ssw239698 0.0 103374
09:00+4ssw279891 0.0 1032206
12:00+7sw41086100 0.0 1031703
15:00+7sw51083100 0.0 1029922
18:00+7ssw51283100 0.0 1027917
21:00+6ssw51487100 0.0 1025801